Flag for Germany Weather past 2 weeks in Wilhelmshaven, Lower Saxony, Germany

Now
36 °F

Sprinkles. Broken clouds.


Feels Like: 24 °F
Forecast: 31 / 35 °F
Wind: 22 mph from Southwest

Location: Wittmundhaven

Current Time: Jan 29, 2015 at 1:51:19 PM

Latest Report: Jan 29, 2015 at 12:20 PM


Visibility: N/A

Pressure: 28.94 "Hg

Humidity: 87%

Dew point: 32 °F

Location of WilhelmshavenLocation

Historic Weather in Wilhelmshaven — Graph

°F

Wilhelmshaven temperature yesterday

Maximum temperature yesterday: 41 °F (at 8:20 AM)
Minimum temperature yesterday: 36 °F (at 7:20 PM)
Average temperature yesterday: 39 °F

Past Weeks' High & Low Weather Summary

 TemperatureHumidityPressure
High48 °F (Jan 15, 12:20 PM)100% (Jan 18, 9:20 PM)30.33 "Hg (Jan 18, 9:20 PM)
Low19 °F (Jan 23, 5:20 AM)70% (Jan 17, 3:20 PM)28.94 "Hg (Jan 29, 12:20 PM)
Average35 °F91%29.86 "Hg
* Reported Jan 14 12:20 PM — Jan 29 12:20 PM, Wilhelmshaven, Weather by CustomWeather, © 2014

Note: Actual official high and low records may vary slightly from our data, if they occured in-between our weather recording intervals... More about our weather records

Advertising

Wilhelmshaven weather history for previous 24 hours

 ConditionsComfort  
Time TempWeatherWind HumidityBarometerVisibility
12:20 PM
Jan 29
36 °FSprinkles. Broken clouds.22 mph87%28.94 "HgN/A
11:20 AM34 °FBroken clouds.20 mph93%28.97 "HgN/A
10:20 AM34 °FSnow flurries. Fog.22 mph93%29.00 "Hg2 mi
9:48 AM32 °FSnow flurries. Partly sunny.16 mph100%29.03 "Hg4 mi
9:20 AM34 °FSnow showers. Broken clouds.20 mph93%29.03 "Hg1 mi
9:03 AM34 °FSnow showers. Partly sunny.17 mph93%29.03 "Hg1 mi
8:20 AM34 °FSnow showers. Partly sunny.21 mph93%29.06 "Hg1 mi
7:48 AM34 °FSnow flurries. Partly cloudy.21 mph93%29.06 "HgN/A
7:20 AM34 °FPartly cloudy.20 mph93%29.06 "HgN/A
6:20 AM34 °FPartly cloudy.23 mph93%29.06 "HgN/A
5:48 AM34 °FSprinkles. Partly cloudy.21 mph93%29.09 "Hg5 mi
5:20 AM36 °FSprinkles. Passing clouds.23 mph87%29.09 "Hg4 mi
4:20 AM36 °FSnow flurries. Partly cloudy.21 mph81%29.12 "HgN/A
3:20 AM37 °FPartly cloudy.22 mph81%29.15 "HgN/A
2:20 AM36 °FPassing clouds.20 mph81%29.18 "HgN/A
1:20 AM37 °FPassing clouds.21 mph75%29.18 "HgN/A
12:20 AM37 °FPassing clouds.22 mph81%29.18 "HgN/A
11:20 PM
Jan 28
37 °FPassing clouds.22 mph87%29.18 "HgN/A
10:49 PM36 °FThunderstorms. Passing clouds.16 mph87%29.18 "HgN/A
10:20 PM36 °FLight rain. Passing clouds.16 mph93%29.21 "Hg5 mi
9:20 PM37 °FPassing clouds.21 mph81%29.21 "HgN/A
8:20 PM37 °FPartly cloudy.14 mph87%29.21 "HgN/A
7:20 PM36 °FPassing clouds.23 mph93%29.21 "HgN/A
6:20 PM39 °FLight rain. Partly cloudy.17 mph87%29.21 "HgN/A
5:20 PM41 °FLight rain. Passing clouds.28 mph93%29.21 "Hg4 mi
5:04 PM41 °FRain. Fog.26 mph93%29.18 "Hg2 mi
4:20 PM41 °FLight rain. Partly sunny.30 mph93%29.21 "HgN/A
3:20 PM41 °FLight rain. Fog.28 mph93%29.27 "Hg2 mi
2:45 PM41 °FLight rain. Fog.26 mph93%29.30 "Hg2 mi
2:20 PM41 °FDrizzle. Fog.28 mph93%29.33 "Hg1 mi
1:56 PM41 °FDrizzle. Fog.24 mph93%29.36 "Hg2 mi
1:20 PM41 °FDrizzle. Partly sunny.25 mph93%29.42 "Hg4 mi
Weather by CustomWeather, © 2014

See weather overviewHow to use our weather pages